If you wish to contribute or participate in the discussions about articles you are invited to join SKYbrary as a registered user

 Actions

Alfredo Vásquez Cobo International Airport

From SKYbrary Wiki

SKLT
Airport
ICAO: SKLT – IATA: LET
Summary
Name Alfredo Vásquez Cobo International Airport
Region South America and Caribbean
Territory Colombia CO.gif
Location Leticia, Amazonas Department
Serving Leticia
Elevation 84.43 m
277 ft84.43 m
Coordinates 4° 11' 28.11" S, 69° 56' 29.08" W
Runways
Designator Length Width Surface ROPS
3/21 1880 m6,167.979 ft
40 m131.234 ft
ASP /


METAR
Observation SKLT 210100Z 00000KT 9999 SCT010 24/24 A2990
Station Leticia / Vasquez Cobo
Date/Time 21 April 2019 01:00:00
Wind direction
Wind speed 00 kts
Lowest cloud amount scattered clouds
Temperature 24°C
Dew point 24°C
Humidity 100%
QNH hPa
Weather condition n/a

Alfredo Vásquez Cobo International Airport is an airport serving Leticia, the capital of the Amazonas Department of Colombia.

Climatology

Tropical rainforest climate (Köppen climate classification Af)

Maps

Terrain

Loading map...

Airport Layout

Loading map...


Accidents & Serious Incidents at or in vicinity of SKLT

None on SKYbrary